Location: Newark
(12.4436°N, 0.6167°W)
Time: 13:58:36
(UTC+00:00)

deb Explorer IX - Pass Details

Date: 14 December 2019
Orbit: 548 x 1101 km, 38.8° (Epoch: 16 January)

Event Time Altitude Azimuth Distance (km) Brightness Sun altitude
Rises 21:58:58 0° 306° (NW) 3,811 - -59.9°
Reaches altitude 10° 22:01:39 10° 305° (NW) 2,899 - -60.5°
Maximum altitude 22:08:51 75° 221° (SW) 1,134 - -62.1°
Drops below altitude 10° 22:16:04 10° 136° (SE) 2,905 - -63.7°
Sets 22:18:45 0° 134° (SE) 3,819 - -64.3°
